Theta_e
291 287 285 290 289 287 284 283 282 286 289 287 289 289 290 293 293 294 296 297 297 297 300 301 299 299 298 297 297 298 296 299 301 301 298 297 297 298 297 298 297 296 296 294
287 284 290 289 288 287 286 285 284 288 290 286 287 288 292 293 294 295 296 296 296 296 298 299 297 297 296 297 296 297 296 297 299 300 300 300 300 298 298 297 296 295 295 293
286 288 291 289 286 286 284 283 285 284 286 286 284 285 286 291 291 293 295 296 296 295 296 298 296 296 296 295 295 295 296 296 297 299 298 291 293 291 293 293 293 293 294 293
286 290 289 286 285 287 284 287 287 285 283 280 285 279 284 289 290 290 292 292 293 293 294 294 294 293 295 296 295 295 295 295 295 297 296 295 295 293 294 295 294 293 292 292
286 286 285 285 287 287 286 286 285 284 282 280 281 279 283 285 288 290 293 293 294 294 292 292 292 293 293 293 293 293 294 294 295 295 296 294 295 295 293 295 293 292 291 291
286 287 288 288 287 288 287 285 283 281 281 276 281 281 281 284 288 288 292 294 292 292 292 293 293 292 293 291 291 291 291 291 292 294 294 293 294 292 291 290 291 290 289 289
283 285 287 287 285 287 286 282 277 276 275 277 280 279 284 288 290 291 292 292 292 290 291 292 294 293 292 290 288 289 289 290 291 292 292 292 293 292 291 290 291 289 288 288
280 283 285 287 288 286 284 285 281 275 273 279 281 280 286 290 291 290 289 290 291 291 291 291 290 290 290 290 289 288 288 288 289 289 290 291 292 292 291 290 291 290 290 289
285 283 285 285 286 289 284 282 287 282 281 277 282 285 292 291 290 288 289 289 288 288 288 288 289 289 290 290 289 288 287 288 288 288 289 289 290 290 289 288 289 289 290 289
290 285 289 288 285 284 286 288 281 281 275 275 280 281 284 287 288 288 286 286 287 288 288 288 288 288 289 290 291 291 291 289 288 288 288 288 289 289 289 287 287 287 288 288
291 289 287 288 284 284 282 282 283 283 283 279 278 280 290 288 284 285 285 286 285 285 286 287 288 289 289 289 289 290 290 289 288 289 288 287 287 288 288 286 286 287 287 287
291 289 284 286 291 287 287 287 286 281 280 281 283 283 292 285 285 285 283 283 284 284 285 286 287 288 288 288 288 288 288 288 287 287 288 287 287 286 285 286 286 286 286 286
292 286 282 282 284 286 286 288 287 286 285 281 278 281 291 290 284 283 281 281 283 283 284 285 286 287 288 288 287 287 287 288 287 286 286 286 286 285 285 285 286 285 285 285
295 286 284 280 283 287 284 285 285 283 277 279 280 280 285 286 280 280 282 282 282 282 283 283 284 287 288 285 285 286 286 287 286 286 285 285 285 286 286 286 286 285 285 285
289 283 284 286 285 282 281 280 280 279 280 276 279 279 283 279 278 279 280 283 282 280 281 282 283 284 285 283 283 284 286 285 285 285 284 284 285 285 285 285 285 285 284 284
285 278 279 277 279 280 277 277 278 278 279 279 279 278 279 279 279 278 278 281 281 279 280 281 282 283 284 281 282 282 283 283 284 283 284 284 284 284 283 284 284 283 283 282
279 278 274 272 277 273 270 274 277 277 278 276 273 274 276 276 277 277 277 279 280 279 280 280 281 283 281 280 280 280 280 282 281 281 283 283 283 282 282 283 282 282 282 282
278 275 272 270 264 264 274 276 276 276 277 275 272 271 275 276 278 279 280 280 278 279 279 280 281 281 279 280 279 279 280 278 279 279 280 280 279 280 281 281 281 281 281 281
279 275 261 260 257 267 272 274 272 272 270 274 271 273 277 278 277 275 279 279 278 279 280 280 281 280 279 278 278 278 278 276 277 277 277 277 276 278 280 279 279 280 280 280
276 277 269 253 258 255 270 272 275 274 265 272 271 272 273 276 267 273 277 278 278 279 279 279 278 277 277 277 277 277 275 275 275 275 275 275 275 276 274 276 278 279 279 279
258 261 267 267 265 264 271 274 276 262 265 270 271 274 274 273 275 278 278 277 278 278 278 277 276 276 276 276 275 274 274 273 274 274 273 273 273 273 274 275 277 278 277 278
265 258 254 253 255 260 272 273 269 273 277 275 275 276 276 277 278 279 278 278 277 276 277 277 275 275 276 275 273 273 272 273 272 271 271 270 269 270 271 271 273 277 276 276
264 268 264 265 264 274 275 275 278 279 276 277 276 277 277 277 277 278 277 276 275 275 276 276 273 274 274 274 272 270 272 272 270 267 267 267 267 268 268 269 270 272 276 274
272 273 270 271 274 274 277 279 279 279 278 279 278 277 277 276 277 276 275 275 274 274 273 273 272 271 271 272 272 271 270 269 265 264 265 265 265 266 266 268 269 271 275 275
274 272 270 271 275 276 277 278 278 279 278 277 276 276 274 273 272 273 272 272 272 271 271 271 270 269 269 270 269 269 268 266 263 263 263 263 264 264 264 266 268 270 273 276
276 274 271 270 276 276 276 278 277 276 273 272 271 271 272 271 270 270 268 269 268 268 268 267 266 266 265 265 264 264 264 263 261 260 261 261 262 262 263 264 265 271 274 277
Wind_Speed
1 4 9 18 14 3 1 5 7 7 9 4 17 18 14 16 16 24 25 21 17 14 19 13 7 8 8 8 11 14 15 18 15 14 13 10 13 12 11 11 15 16 15 15
3 8 15 3 4 7 9 12 13 10 14 4 10 19 20 23 25 21 24 23 11 10 18 9 6 6 8 8 11 12 14 14 15 13 12 7 11 10 9 9 11 14 15 16
10 7 5 7 5 7 6 6 10 11 6 6 7 9 5 8 8 8 20 10 11 14 15 18 9 6 8 9 9 11 13 14 14 13 9 3 5 3 8 9 10 12 14 14
7 5 7 4 6 10 9 10 11 5 3 5 4 12 3 9 11 7 9 7 7 9 9 9 9 8 7 9 5 7 9 12 13 14 12 17 12 10 9 12 9 10 14 15
7 6 4 4 10 7 10 2 3 3 4 2 3 5 6 2 8 6 8 5 2 7 7 7 10 11 10 8 4 3 3 5 8 11 11 10 12 8 3 7 12 12 11 12
7 4 6 8 3 6 3 2 4 4 1 5 11 9 3 5 6 2 6 9 9 11 10 10 7 8 12 9 8 6 3 2 3 7 9 12 12 6 6 7 11 10 9 10
3 4 4 2 2 2 4 5 5 6 2 8 3 4 5 7 5 1 6 7 7 7 10 13 19 17 13 10 12 8 6 3 3 5 8 10 11 8 9 10 9 11 10 10
5 9 8 5 7 7 7 9 7 7 4 7 3 11 6 9 6 6 2 2 9 14 14 17 19 17 20 21 16 12 10 8 4 3 4 3 7 5 5 6 6 8 9 12
4 10 3 5 4 7 3 6 3 2 0 4 7 14 14 9 4 3 10 14 19 18 20 19 18 18 18 17 17 16 13 9 7 5 5 4 5 6 6 6 7 7 8 9
2 8 7 4 2 1 5 1 1 1 4 8 10 9 15 8 10 16 17 15 13 11 13 13 14 15 16 15 14 15 14 13 13 11 7 6 5 6 7 5 10 9 9 9
3 4 5 6 3 7 2 3 5 2 7 12 12 9 7 9 12 9 6 8 10 12 13 14 13 11 10 11 13 14 14 14 15 14 12 10 8 7 7 8 10 11 10 11
9 7 11 20 16 8 9 17 17 14 12 10 15 14 11 13 11 10 8 8 9 10 11 11 11 12 13 14 13 13 14 12 11 12 12 12 11 9 7 10 11 11 12 12
2 4 9 7 2 2 3 3 4 6 2 8 11 4 7 1 12 10 8 9 8 9 12 12 11 10 10 11 12 12 12 12 13 14 12 12 12 10 11 12 10 10 11 12
2 5 9 10 12 6 11 9 4 5 5 9 8 14 20 19 12 9 6 4 5 7 8 8 9 12 11 12 11 11 12 12 12 14 12 12 13 13 11 11 11 10 11 12
3 8 9 12 7 3 3 8 16 16 16 13 19 23 22 3 5 8 9 6 8 8 8 9 9 9 10 14 14 13 11 12 13 14 13 14 11 12 11 10 11 12 9 11
3 4 3 4 6 3 9 13 16 18 19 19 22 24 6 1 4 5 8 4 6 8 10 10 9 11 10 11 11 13 13 13 12 11 12 12 12 13 14 13 12 9 9 9
2 3 1 7 6 7 11 16 16 15 17 7 13 1 2 3 4 4 6 6 6 7 9 10 9 9 7 10 10 10 12 12 11 11 10 10 11 14 14 14 14 12 9 9
11 11 4 10 5 19 8 3 1 4 3 5 4 3 5 6 5 7 7 7 6 8 9 10 9 8 6 8 8 8 9 10 11 12 12 12 14 15 14 14 15 13 10 9
17 9 2 3 8 9 12 5 5 6 6 7 5 4 6 6 5 7 10 9 7 8 9 10 8 7 9 8 7 8 9 9 9 9 10 13 16 15 15 15 16 15 12 11
7 12 5 3 4 8 4 2 2 4 5 8 7 8 6 2 2 12 8 6 8 9 8 9 7 10 9 9 5 8 9 10 10 10 12 11 13 12 16 16 15 13 12 13
3 2 12 11 7 8 5 4 3 7 7 5 6 9 8 7 12 16 6 8 7 8 10 6 7 10 12 8 6 9 11 11 10 9 12 12 12 13 14 16 16 14 12 12
6 5 5 3 2 8 4 3 5 6 7 7 6 10 10 11 13 14 14 11 7 8 11 10 9 13 14 10 7 12 14 11 6 10 12 14 13 12 12 15 16 15 12 13
5 8 6 11 8 5 6 8 12 13 9 15 6 10 9 11 13 14 9 7 7 8 9 10 10 15 16 13 8 12 16 11 12 10 14 15 15 14 13 13 15 14 12 10
7 6 9 11 12 14 17 18 14 10 12 13 9 8 7 10 9 6 7 10 10 11 12 11 11 15 19 15 13 12 13 10 9 15 18 16 16 16 15 11 11 12 12 11
10 3 6 15 16 13 17 16 15 15 9 5 5 4 4 4 6 7 11 12 13 14 13 13 14 15 19 18 18 16 14 12 14 16 18 18 14 15 14 13 12 12 14 14
10 18 12 16 16 14 17 12 3 2 3 4 5 4 3 6 9 10 12 12 13 15 14 15 17 18 19 19 20 18 17 15 16 19 16 14 13 13 13 13 15 22 28 32
Wind_Direction
54 132 201 218 207 98 193 225 243 260 258 305 269 269 269 273 268 272 271 273 274 268 269 271 252 232 229 221 207 205 196 198 182 183 180 197 205 201 201 200 194 187 183 181
67 226 225 113 151 228 242 262 265 274 259 198 268 283 274 259 262 259 269 277 291 286 293 289 279 260 239 233 217 207 208 199 197 193 195 198 194 211 210 203 202 196 188 181
195 212 171 188 190 242 225 220 246 254 316 253 318 276 241 280 257 268 261 274 279 272 288 307 328 277 261 257 223 216 207 196 199 200 182 111 108 123 185 197 193 194 190 188
238 262 192 156 206 202 258 231 253 258 360 251 18 292 188 253 278 263 290 272 282 296 316 326 313 306 290 289 278 226 201 199 191 187 189 197 203 196 200 196 196 196 193 189
241 173 176 185 222 145 235 190 218 193 195 3 303 279 251 220 263 276 284 302 17 262 226 348 348 341 311 312 325 297 236 208 190 189 196 202 213 214 159 184 179 184 186 193
252 328 185 215 199 184 116 60 37 58 49 281 209 192 288 192 207 308 312 349 11 9 12 9 331 337 351 355 357 24 67 99 166 190 201 202 218 208 181 174 182 187 188 180
300 227 277 166 165 86 116 70 315 330 7 238 348 268 244 248 249 286 340 321 1 14 10 351 2 4 5 7 25 15 30 15 312 256 221 213 219 218 215 190 192 181 182 194
288 291 180 187 211 193 175 170 169 232 248 283 349 255 256 230 266 43 105 303 19 19 10 17 16 13 14 14 12 14 16 350 349 282 266 303 285 246 230 229 218 204 203 202
220 256 278 223 183 166 182 188 197 315 74 288 252 283 288 253 150 30 51 25 27 27 20 18 18 17 18 21 16 13 8 349 336 303 273 245 237 241 233 208 201 214 215 201
172 289 244 262 134 253 199 174 89 328 178 232 268 275 245 319 33 33 29 21 11 21 26 21 18 17 13 11 17 18 23 12 356 341 302 271 248 237 242 208 209 204 205 201
139 209 276 34 213 204 143 251 242 274 202 242 254 246 253 72 78 74 41 20 18 13 15 13 12 15 17 12 8 11 10 11 3 2 347 311 281 249 235 227 221 215 202 200
197 206 252 253 235 229 224 246 231 235 238 235 236 254 4 99 88 79 69 41 36 25 9 11 7 3 5 2 5 4 357 359 356 352 347 350 331 297 259 245 238 219 213 206
5 233 274 283 32 51 116 332 13 341 240 239 258 251 336 14 88 39 50 50 33 15 6 1 1 357 3 357 351 354 353 349 346 349 347 348 351 335 303 276 256 232 223 216
136 213 267 274 285 294 275 284 282 265 265 284 268 301 307 310 342 25 38 45 27 10 6 353 351 342 351 350 347 347 346 350 342 340 342 344 346 342 330 307 280 252 228 223
304 264 266 264 288 341 283 280 273 264 260 260 283 280 275 44 354 336 327 345 353 359 352 339 339 339 344 341 341 343 338 342 342 335 336 337 336 332 330 323 300 281 252 237
351 274 325 269 279 277 280 276 264 274 272 260 259 264 59 85 334 309 319 314 316 336 336 336 329 327 332 330 330 331 334 337 333 323 326 327 330 337 333 326 319 289 264 246
284 287 288 260 305 324 280 254 264 258 258 247 258 243 212 247 245 266 290 290 294 303 312 311 309 307 309 314 321 319 321 325 326 326 322 319 330 328 327 323 315 310 292 272
239 238 228 273 27 268 275 8 279 222 103 113 104 210 216 229 250 254 259 247 276 290 287 280 276 266 269 279 297 306 317 323 318 318 326 329 331 323 322 321 317 312 298 271
222 238 264 195 219 308 301 212 194 166 257 174 176 245 250 265 318 276 245 230 254 263 267 262 258 272 282 274 282 292 300 307 305 308 315 322 328 315 322 316 311 309 297 281
207 225 193 82 198 223 244 204 130 112 277 207 185 237 235 182 241 269 221 237 249 256 264 279 279 283 277 283 269 273 293 300 297 306 312 308 308 307 306 303 297 294 293 284
17 10 215 226 248 287 241 210 135 92 258 222 198 234 218 206 237 261 220 242 236 245 266 256 271 281 283 284 274 274 290 280 290 298 302 300 302 296 297 299 299 291 290 285
186 177 205 68 17 279 193 134 156 215 262 271 239 248 234 258 264 255 258 266 262 285 295 295 296 292 293 294 271 280 281 290 282 291 294 297 295 292 292 290 293 289 277 274
269 191 195 192 209 216 205 225 269 276 252 276 248 260 250 263 265 259 265 285 294 287 283 291 282 287 288 288 268 271 285 295 296 292 294 294 294 290 287 285 287 288 275 261
247 170 237 266 252 252 263 270 272 268 261 268 265 265 277 265 281 305 303 297 295 291 290 293 289 287 289 294 288 281 292 298 293 292 293 294 290 290 288 280 276 274 269 264
246 188 242 257 260 264 262 257 260 273 274 299 360 9 7 351 317 306 296 301 300 300 305 305 298 293 291 299 296 302 303 303 293 289 290 291 285 282 282 274 275 273 273 258
233 250 249 260 255 255 265 278 37 347 40 36 16 339 356 340 314 313 301 307 307 307 313 308 301 299 297 300 298 301 301 299 293 290 289 286 287 285 281 281 284 271 273 274